Location: Islay
(41.3172°N, 105.1346°W)
Time: 18:41:56
(UTC+00:00)

ACS3 Solar Sail - Pass Details

Date: 21 April 2026
Orbit: 894 x 947 km, 97.2° (Epoch: 12 May)

Event Time Altitude Azimuth Distance (km) Brightness Sun altitude
Rises 08:01:25 0° 13° (NNE) 3,549 5.8 -34.9°
Reaches altitude 10° 08:03:50 10° 15° (NNE) 2,611 4.8 -34.7°
Enters shadow 08:08:10 51° 30° (NNE) 1,145 2.3 -34.5°
